Weather History for Winnemucca, NV

Change the Weather History Date:

Tuesday, May 13, 2014

  Actual Average Record
Temperature  
Mean Temperature 53 °F 54 °F  
Max Temperature 74 °F 71 °F 94 °F (1976)
Min Temperature 31 °F 37 °F 20 °F (1916)
Degree Days  
Heating Degree Days 12 11  
Month to date heating degree days 171 164  
Since 1 July heating degree days 6058 6044  
Cooling Degree Days 0 0  
Month to date cooling degree days 0 0  
Year to date cooling degree days 0 0  
Growing Degree Days 2 (Base 50)    
Moisture  
Dew Point 17 °F    
Average Humidity 33    
Maximum Humidity 56    
Minimum Humidity 9    
Precipitation  
Precipitation 0.00 in 0.04 in 0.39 in (1998)
Month to date precipitation 0.53 0.49  
Year to date precipitation 3.71 3.74  
Snow  
Snow 0.00 in 0.00 in 0.80 in (1880)
Month to date snowfall 0.0 0.1  
Since 1 July snowfall 23.4 20.9  
Snow Depth 0.00 in    
Sea Level Pressure  
Sea Level Pressure 30.33 in    
Wind  
Wind Speed 7 mph (NE)    
Max Wind Speed 16 mph    
Max Gust Speed 20 mph    
Visibility 10 miles    
Events      
T = Trace of Precipitation, MM = Missing Value Source: NWS Daily Summary

Daily Weather History Graph

Daily Weather History Graph

Search for Another Location

Airport:

Trip Planner

Search our weather history database for the weather conditions in past years. The results will help you decide how hot, cold, wet, or windy it might be!

Date:

Astronomy

May. 13, 2014 Rise Set
Actual Time 5:35 AM PDT 8:00 PM PDT
Civil Twilight 5:04 AM PDT 8:31 PM PDT
Nautical Twilight 4:26 AM PDT 9:09 PM PDT
Astronomical Twilight 3:43 AM PDT 9:52 PM PDT
Moon 7:06 PM PDT (5/13) 4:55 AM PDT (5/13)
Length of Visible Light 15h 26m
Length of Day
14h 24m
Waxing Gibbous, 99% of the Moon is Illuminated
May 13
Waxing Gibbous
May 14
Full
May 21
Last Quarter
May 28
New
Jun 5
First Quarter

Hourly Weather History & Observations

Time (PDT) Temp. Windchill Dew Point Humidity Pressure Visibility Wind Dir Wind Speed Gust Speed Precip Events Conditions
12:56 AM 48.0 °F - 15.1 °F 27% 30.30 in 10.0 mi NE 13.8 mph - N/A   Clear
1:56 AM 45.0 °F 38.5 °F 16.0 °F 31% 30.32 in 10.0 mi NE 13.8 mph - N/A   Clear
2:56 AM 43.0 °F 36.8 °F 18.0 °F 37% 30.32 in 10.0 mi NE 11.5 mph - N/A   Clear
3:56 AM 41.0 °F 34.7 °F 19.0 °F 41% 30.33 in 10.0 mi ENE 10.4 mph - N/A   Clear
4:56 AM 34.0 °F 28.0 °F 19.0 °F 54% 30.35 in 10.0 mi ESE 6.9 mph - N/A   Clear
5:56 AM 37.4 °F 30.8 °F 19.4 °F 48% 30.39 in 10.0 mi NE 9.2 mph - N/A   Clear
6:56 AM 41.0 °F 35.8 °F 21.0 °F 45% 30.37 in 10.0 mi East 8.1 mph - N/A   Clear
7:56 AM 48.9 °F - 21.9 °F 35% 30.38 in 10.0 mi NE 11.5 mph - N/A   Clear
8:56 AM 55.4 °F - 21.2 °F 26% 30.44 in 10.0 mi NE 12.7 mph - N/A   Clear
9:56 AM 60.1 °F - 18.0 °F 20% 30.38 in 10.0 mi Variable 3.5 mph - N/A   Clear
10:56 AM 64.9 °F - 17.1 °F 16% 30.35 in 10.0 mi NW 5.8 mph - N/A   Clear
11:56 AM 66.0 °F - 16.0 °F 15% 30.35 in 10.0 mi Variable 3.5 mph - N/A   Clear
12:56 PM 66.9 °F - 14.0 °F 13% 30.33 in 10.0 mi Variable 3.5 mph - N/A   Clear
1:56 PM 70.0 °F - 12.9 °F 11% 30.32 in 10.0 mi North - - N/A   Clear
2:56 PM 72.0 °F - 9.0 °F 9% 30.30 in 10.0 mi Calm Calm - N/A   Clear
3:56 PM 72.0 °F - 12.9 °F 10% 30.28 in 10.0 mi Variable 5.8 mph - N/A   Clear
4:56 PM 73.0 °F - 10.9 °F 9% 30.29 in 10.0 mi Variable 4.6 mph - N/A   Clear
5:56 PM 72.0 °F - 10.9 °F 10% 30.27 in 10.0 mi North 8.1 mph - N/A   Clear
6:56 PM 71.1 °F - 10.0 °F 9% 30.27 in 10.0 mi NNE 9.2 mph - N/A   Clear
7:56 PM 64.9 °F - 14.0 °F 14% 30.27 in 10.0 mi NNE 5.8 mph - N/A   Clear
8:56 PM 54.0 °F - 21.0 °F 28% 30.29 in 10.0 mi East 6.9 mph - N/A   Clear
9:56 PM 48.9 °F - 19.9 °F 32% 30.30 in 10.0 mi Calm Calm - N/A   Clear
10:56 PM 46.0 °F 43.1 °F 21.0 °F 37% 30.31 in 10.0 mi ESE 5.8 mph - N/A   Clear
11:56 PM 43.0 °F 39.5 °F 19.9 °F 40% 30.32 in 10.0 mi ESE 5.8 mph - N/A   Clear